[[{"header":{"parameterUnit":"m.s-1","parameterCategory":2,"la1":30.2991,"la2":30.254,"lo1":-89.0895,"lo2":-89.0444,"dy":0.0017,"dx":0.0017,"nx":28,"ny":28,"refTime":"2023-08-13T21:00:00:Z","depth":"0","parameterNumber":2,"parameterNumberName":"U-component_of_CURRENTS"},"data":[0,0,0,0,0,0,0,0,0,0,0,0,0,0,0,0,0,0,0,0,0,0,0,0,0,0,0,0,0,0,0,0,0,0,0,0,0,0,0,0,0,0,0,0,0,0,0,0,0,0,0,0,0,0,0,0,0,0,0.1162,0.1162,0,0.1187,0.1187,0.1187,0.1126,0.1124,0.1122,0.1121,0.1057,0.1056,0.1056,0,0,0,0,0,0,0,0,0,0,0,0,0,0.1036,0.1038,0.1162,0.1163,0.1163,0.1187,0.1187,0.1187,0.1126,0.1124,0.1122,0.112,0.1057,0.1056,0.1056,0,0,0,0,0,0,0,0,0,0,0,0,0,0.1075,0.1039,0.1162,0.1139,0.1137,0.1187,0.1187,0.1187,0.1126,0.1124,0.1121,0.1119,0.1057,0.1056,0.1056,0.1101,0,0,0.1055,0.1055,0,0,0,0,0,0,0,0,0.1073,0.1079,0.1141,0.114,0.1139,0.1154,0.1119,0.1155,0.1127,0.1126,0.1121,0.1118,0.1085,0.1083,0.1088,0.1098,0.1095,0.1055,0.1055,0.1055,0.1054,0,0,0,0,0,0,0,0.107,0.1078,0.1168,0.1142,0.1141,0.1119,0.1121,0.1126,0.1114,0.1126,0.1123,0.1133,0.1083,0.1089,0.1086,0.1094,0.1055,0.1055,0.1054,0.1054,0.1232,0.1236,0,0,0,0,0,0,0.108,0.1076,0.1167,0.1169,0.1104,0.1123,0.1126,0.1148,0.1116,0.111,0.1135,0.113,0.109,0.1086,0.1083,0.1212,0.1055,0.1054,0.1054,0.1227,0.1233,0.1238,0,0,0,0,0,0,0.1077,0.1088,0.1166,0.1125,0.1133,0.1129,0.1154,0.115,0.1164,0.1124,0.1115,0.1153,0.1088,0.1084,0.1128,0.1206,0.1054,0.1054,0.1221,0.1228,0.1235,0.142,0,0,0,0,0,0,0.1074,0.1088,0.1111,0.1126,0.1136,0.1221,0.1156,0.1153,0.1176,0.1169,0.1138,0.1129,0.1086,0.113,0.1128,0.1203,0.1053,0.1215,0.1224,0.1233,0.1408,0.1433,0.1454,0,0,0,0,0,0.1069,0.1117,0.1112,0.1124,0.1168,0.1224,0.1228,0.1212,0.1179,0.121,0.1199,0.113,0.1187,0.1134,0.1131,0.1206,0.121,0.1221,0.1232,0.1397,0.1428,0.1454,0,0,0,0,0,0,0.1081,0.1116,0.1111,0.1168,0.1204,0.1215,0.1245,0.1233,0.1249,0.1242,0.1187,0.1181,0.1247,0.1215,0.1157,0.1291,0.1191,0.1202,0.1317,0.1346,0.1369,0.137,0.1053,0,0,0,0,0,0.1097,0.1139,0.1169,0.1221,0.1241,0.1247,0.1267,0.1264,0.1279,0.1282,0.1267,0.1267,0.1295,0.1307,0.1314,0.1388,0.1412,0.1441,0.1464,0.1484,0.1489,0.1606,0.164,0.1274,0.1274,0.1274,0,0,0.1117,0.1143,0.1167,0.1226,0.1247,0.1303,0.1253,0.1306,0.1355,0.1275,0.1341,0.1341,0.1332,0.1414,0.1443,0.1395,0.1617,0.1498,0.1515,0.1508,0.1621,0.1656,0.1688,0.1282,0.1281,0.1279,0,0,0.1182,0.1205,0.1259,0.1297,0.1347,0.136,0.1383,0.1417,0.1435,0.1503,0.1472,0.1532,0.1549,0.1585,0.1596,0.1761,0.1731,0.1762,0.1885,0.2001,0.2031,0.2058,0.2199,0.2237,0.178,0.1781,0.1781,0,0.1204,0.1274,0.1287,0.135,0.1389,0.1392,0.1461,0.1497,0.1544,0.1582,0.1543,0.1642,0.1637,0.1758,0.1821,0.1812,0.1875,0.1773,0.2031,0.2057,0.2081,0.2218,0.2258,0.1791,0.179,0.1789,0.1788,0,0.1308,0.1361,0.1404,0.1478,0.1525,0.1592,0.1638,0.1692,0.1705,0.1738,0.1849,0.187,0.192,0.1957,0.1934,0.2118,0.2111,0.2041,0.1953,0.2129,0.2264,0.2301,0.1806,0.1802,0.1799,0.1796,0,0,0.1372,0.1455,0.1472,0.151,0.1596,0.1643,0.1744,0.1837,0.1903,0.1966,0.2066,0.2158,0.216,0.2178,0.2183,0.2299,0.2554,0.2256,0.2258,0.2387,0.285,0.2943,0.2992,0.2527,0.2533,0.2538,0.2898,0,0.1452,0.1561,0.1592,0.1704,0.1765,0.18,0.1886,0.197,0.2033,0.2134,0.2199,0.2285,0.2248,0.2287,0.2406,0.2485,0.2651,0.2465,0.2667,0.2674,0.2726,0.3037,0.3056,0.3386,0.2934,0.294,0.2945,0,0.1553,0.1608,0.1716,0.1798,0.1828,0.189,0.2014,0.2094,0.2232,0.2286,0.2392,0.2419,0.2596,0.2526,0.2802,0.2683,0.2803,0.2878,0.2891,0.2927,0.2836,0.3126,0.347,0.3341,0.3001,0.2997,0.2993,0,0.1591,0.1698,0.1774,0.1811,0.1909,0.1958,0.2013,0.214,0.2227,0.2386,0.2463,0.2628,0.2719,0.2879,0.3023,0.2934,0.3334,0.3213,0.3435,0.3441,0.3472,0.3472,0.37,0.3471,0.347,0.3469,0.3468,0,0.1675,0.1739,0.1786,0.1834,0.1923,0.1979,0.2098,0.2176,0.2317,0.2442,0.2532,0.2669,0.2812,0.302,0.3134,0.3438,0.3436,0.3548,0.3574,0.3546,0.3548,0.3437,0.3374,0.3483,0.348,0.3477,0.3475,0,0.1728,0.1761,0.1845,0.1923,0.1944,0.201,0.2124,0.2221,0.2336,0.2505,0.256,0.2765,0.3045,0.3226,0.352,0.3606,0.3826,0.3958,0.3936,0.3955,0.3999,0.3947,0.4122,0.4054,0.4281,0.4286,0.429,0,0.1775,0.1817,0.1889,0.193,0.1966,0.2052,0.2121,0.2231,0.2334,0.2567,0.2658,0.2957,0.3166,0.3656,0.3911,0.4235,0.4066,0.4422,0.4257,0.4108,0.4068,0.3843,0.3751,0.4398,0.4403,0.4407,0.441,0,0.1853,0.1862,0.1918,0.1984,0.2046,0.212,0.2212,0.2285,0.2429,0.2573,0.2788,0.2965,0.3459,0.3794,0.4233,0.4437,0.4284,0.4513,0.437,0.4243,0.4006,0.3913,0.4044,0.4445,0.4441,0.4439,0.4437,0.4435,0.1898,0.1935,0.1978,0.2042,0.2102,0.2158,0.2208,0.2319,0.2455,0.2643,0.2824,0.3094,0.3619,0.4243,0.4398,0.4723,0.4571,0.4679,0.4659,0.4462,0.4314,0.4553,0.4947,0.4946,0.4946,0.4946,0.4945,0,0.1942,0.1968,0.2034,0.2088,0.2132,0.2158,0.2252,0.2296,0.2419,0.2659,0.2841,0.3376,0.3858,0.4286,0.4852,0.484,0.4625,0.4765,0.4414,0.4336,0.4601,0.4515,0.4819,0.4819,0.4819,0.4819,0.4819,0.4819,0.1965,0.2013,0.2031,0.2083,0.2115,0.2145,0.2175,0.2255,0.2405,0.2684,0.2956,0.319,0.3815,0.4564,0.4884,0.4861,0.453,0.4463,0.4318,0.4451,0.4434,0.4418,0.4317,0.4575,0.4575,0.3908,0.3904,0.3901]},{"header":{"parameterUnit":"m.s-1","parameterCategory":2,"la1":30.2991,"la2":30.254,"lo1":-89.0895,"lo2":-89.0444,"dy":0.0017,"dx":0.0017,"nx":28,"ny":28,"refTime":"2023-08-13T21:00:00:Z","depth":"0","parameterNumber":3,"parameterNumberName":"V-component_of_CURRENTS"},"data":[0,0,0,0,0,0,0,0,0,0,0,0,0,0,0,0,0,0,0,0,0,0,0,0,0,0,0,0,0,0,0,0,0,0,0,0,0,0,0,0,0,0,0,0,0,0,0,0,0,0,0,0,0,0,0,0,0,0,-0.0175,-0.0177,0,-0.0339,-0.0341,-0.0343,-0.0477,-0.0478,-0.0479,-0.0481,-0.0626,-0.0629,-0.0632,0,0,0,0,0,0,0,0,0,0,0,0,0,-0.0045,-0.0047,-0.0175,-0.0177,-0.0179,-0.0339,-0.0341,-0.0344,-0.0477,-0.0478,-0.048,-0.0481,-0.0625,-0.0629,-0.0632,0,0,0,0,0,0,0,0,0,0,0,0,0,-0.0146,-0.0047,-0.0175,-0.0263,-0.0273,-0.0338,-0.0341,-0.0344,-0.0476,-0.0478,-0.048,-0.0482,-0.0624,-0.0628,-0.0632,-0.0621,0,0,-0.0645,-0.0647,0,0,0,0,0,0,0,0,-0.014,-0.0151,-0.0248,-0.0257,-0.0268,-0.0388,-0.0349,-0.0435,-0.0476,-0.0401,-0.0481,-0.0483,-0.0542,-0.0553,-0.0583,-0.0628,-0.0634,-0.0645,-0.0648,-0.0649,-0.0651,0,0,0,0,0,0,0,-0.0133,-0.0145,-0.0242,-0.025,-0.0262,-0.0318,-0.0334,-0.0367,-0.046,-0.0407,-0.0417,-0.0432,-0.0548,-0.0579,-0.0587,-0.0636,-0.0645,-0.0649,-0.0651,-0.0653,-0.0704,-0.0703,0,0,0,0,0,0,-0.0104,-0.0138,-0.0237,-0.0246,-0.0205,-0.0318,-0.0336,-0.0349,-0.0461,-0.0479,-0.043,-0.0438,-0.0571,-0.0582,-0.0593,-0.0571,-0.0649,-0.0653,-0.0656,-0.0705,-0.0703,-0.0702,0,0,0,0,0,0,-0.01,-0.0111,-0.023,-0.0195,-0.0214,-0.0318,-0.0332,-0.0351,-0.0386,-0.0478,-0.0497,-0.0446,-0.0573,-0.0587,-0.0628,-0.0578,-0.0655,-0.0659,-0.0706,-0.0704,-0.0703,-0.0535,0,0,0,0,0,0,-0.0096,-0.0108,-0.0103,-0.0192,-0.0215,-0.0247,-0.033,-0.0353,-0.0392,-0.0403,-0.0496,-0.0512,-0.0575,-0.0622,-0.0632,-0.0585,-0.0662,-0.0707,-0.0705,-0.0703,-0.0542,-0.0528,-0.0516,0,0,0,0,0,-0.009,-0.0063,-0.0101,-0.0113,-0.0205,-0.0245,-0.026,-0.0343,-0.039,-0.0386,-0.0466,-0.051,-0.0616,-0.0624,-0.0637,-0.0589,-0.0708,-0.0706,-0.0703,-0.0548,-0.0531,-0.0516,0,0,0,0,0,0,0.0001,-0.0077,-0.0121,-0.0118,-0.0171,-0.0267,-0.0269,-0.0329,-0.0391,-0.0403,-0.0501,-0.0521,-0.0541,-0.059,-0.0597,-0.0601,-0.0666,-0.0666,-0.0543,-0.0528,-0.0515,-0.0459,-0.0666,0,0,0,0,0,0.0025,0.0017,-0.0063,-0.0062,-0.0079,-0.0173,-0.02,-0.0254,-0.0323,-0.0354,-0.042,-0.0488,-0.0537,-0.0554,-0.0608,-0.0601,-0.063,-0.058,-0.0567,-0.0555,-0.052,-0.0548,-0.0533,-0.0694,-0.0694,-0.0694,0,0,0.006,0.0016,0.0011,-0.0044,-0.0093,-0.0091,-0.0193,-0.0217,-0.0216,-0.0354,-0.0365,-0.0447,-0.0531,-0.0538,-0.0548,-0.0571,-0.052,-0.0552,-0.0541,-0.0512,-0.0544,-0.0528,-0.0514,-0.0692,-0.0693,-0.0693,0,0,0.0136,0.0092,0.0112,0.0083,0.0025,-0.0024,-0.0022,-0.0104,-0.0138,-0.0164,-0.0267,-0.0315,-0.0385,-0.0432,-0.0466,-0.0408,-0.0461,-0.0426,-0.0297,-0.0325,-0.0311,-0.0299,-0.0288,-0.0276,-0.0405,-0.0405,-0.0405,0,0.0181,0.0186,0.0115,0.0132,0.012,0.0019,0.0048,0.0013,-0.0072,-0.0085,-0.0141,-0.025,-0.0326,-0.0332,-0.032,-0.0372,-0.0389,-0.0347,-0.0304,-0.0293,-0.0284,-0.0276,-0.0265,-0.0397,-0.0398,-0.0399,-0.0399,0,0.0266,0.0271,0.0289,0.0272,0.0261,0.0268,0.0214,0.0202,0.0144,0.0095,0.0066,-0.0045,-0.011,-0.0137,-0.0212,-0.0179,-0.0211,-0.0293,-0.0333,-0.0257,-0.0254,-0.0246,-0.0385,-0.0388,-0.039,-0.0392,0,0,0.0351,0.0348,0.035,0.036,0.0332,0.0326,0.0358,0.0343,0.0357,0.0289,0.0302,0.0213,0.0138,0.0095,-0.0002,-0.0015,0.0027,-0.0106,-0.0112,-0.0073,0.0004,0.0016,0.0025,-0.005,-0.0048,-0.0047,-0.0009,0,0.0431,0.0488,0.0468,0.0526,0.0549,0.0495,0.0522,0.0501,0.047,0.0465,0.0376,0.0337,0.0233,0.0193,0.0172,0.0043,0.0052,0.0028,-0.0094,-0.0096,-0.0078,0.0035,0.0068,0.0107,-0.0002,-0.0001,0.0,0,0.0509,0.0534,0.0606,0.0627,0.0633,0.0657,0.0674,0.0689,0.0672,0.0651,0.0624,0.0531,0.0499,0.0382,0.0288,0.0275,0.0175,0.009,0.0086,0.005,-0.0069,0.0003,0.0124,-0.0117,0.0011,0.001,0.001,0,0.057,0.0625,0.068,0.0689,0.0708,0.073,0.0737,0.0737,0.0763,0.0766,0.0778,0.0716,0.0669,0.0558,0.0387,0.0332,0.0291,0.0173,0.0112,0.0111,0.0095,0.0091,-0.0012,0.0138,0.0137,0.0137,0.0137,0,0.0643,0.0684,0.0708,0.0732,0.0794,0.0788,0.0852,0.0857,0.0888,0.0936,0.0866,0.0895,0.0705,0.0639,0.0479,0.0357,0.0363,0.0187,0.0135,0.0155,0.0156,-0.0095,-0.0276,0.0139,0.0138,0.0138,0.0138,0,0.0687,0.0705,0.0765,0.0804,0.0818,0.0856,0.0912,0.0965,0.0987,0.1056,0.1058,0.1033,0.0971,0.0808,0.0635,0.0478,0.0224,0.0293,0.036,0.0316,0.0015,-0.0158,-0.0192,-0.0377,0.0241,0.0242,0.0243,0,0.0715,0.0749,0.0807,0.0845,0.0861,0.0919,0.0962,0.1004,0.107,0.1144,0.1186,0.1164,0.1171,0.0981,0.0729,0.0526,0.0278,0.0388,0.0279,0.006,-0.0173,-0.02,-0.036,0.0329,0.033,0.0331,0.0332,0,0.0764,0.0775,0.082,0.0894,0.0948,0.1024,0.109,0.1157,0.1217,0.13,0.1394,0.1413,0.1259,0.1112,0.0848,0.0657,0.0216,0.0401,0.0143,-0.0108,-0.0112,-0.0336,0.0255,0.0341,0.0341,0.034,0.0339,0.0339,0.0788,0.0826,0.0877,0.0946,0.1019,0.1114,0.1183,0.1282,0.1405,0.1546,0.1559,0.1682,0.1495,0.1158,0.0815,0.0296,0.0242,0.0119,-0.0064,-0.0059,-0.0259,0.0388,0.0419,0.0418,0.0418,0.0418,0.0417,0,0.0819,0.0858,0.0929,0.1016,0.1101,0.1132,0.1262,0.1355,0.151,0.1706,0.1817,0.1968,0.1551,0.1133,0.0467,-0.0042,-0.0263,-0.0334,-0.0415,-0.0566,-0.0004,-0.0027,-0.0054,-0.0053,-0.0053,-0.0053,-0.0053,-0.0052,0.0838,0.0898,0.0932,0.1061,0.113,0.1253,0.133,0.1489,0.1664,0.2,0.2245,0.2425,0.2355,0.0948,-0.009,-0.0457,-0.0935,-0.0922,-0.1226,-0.0906,-0.0879,-0.0853,-0.0915,-0.1127,-0.1128,-0.1677,-0.1683,-0.1688]}],[{"header":{"parameterUnit":"m.s-1","parameterCategory":2,"la1":30.2991,"la2":30.254,"lo1":-89.0895,"lo2":-89.0444,"dy":0.0017,"dx":0.0017,"nx":28,"ny":28,"refTime":"2023-08-13T21:00:00:Z","depth":"2","parameterNumber":2,"parameterNumberName":"U-component_of_CURRENTS"},"data":[0,0,0,0,0,0,0,0,0,0,0,0,0,0,0,0,0,0,0,0,0,0,0,0,0,0,0,0,0,0,0,0,0,0,0,0,0,0,0,0,0,0,0,0,0,0,0,0,0,0,0,0,0,0,0,0,0,0,0.0575,0.0576,0,0.0654,0.0655,0.0656,0.0693,0.0693,0.0693,0.0693,0.0749,0.0751,0.0752,0,0,0,0,0,0,0,0,0,0,0,0,0,0.0467,0.0469,0.0575,0.0576,0.0577,0.0654,0.0655,0.0656,0.0693,0.0693,0.0693,0.0693,0.0749,0.0751,0.0752,0,0,0,0,0,0,0,0,0,0,0,0,0,0.0526,0.0469,0.0575,0.0606,0.0609,0.0654,0.0655,0.0656,0.0693,0.0693,0.0693,0.0693,0.0748,0.075,0.0753,0.0766,0,0,0.0759,0.076,0,0,0,0,0,0,0,0,0.0522,0.053,0.06,0.0604,0.0608,0.0664,0.0637,0.0692,0.0693,0.066,0.0693,0.0693,0.0719,0.0724,0.0738,0.0768,0.0771,0.076,0.0761,0.0762,0.0763,0,0,0,0,0,0,0,0.0518,0.0527,0.0606,0.0601,0.0606,0.0619,0.0627,0.0648,0.0688,0.0663,0.0666,0.0676,0.0721,0.0736,0.0739,0.0772,0.076,0.0762,0.0763,0.0764,0.0913,0.0915,0,0,0,0,0,0,0.051,0.0523,0.0603,0.0608,0.0565,0.0621,0.063,0.0645,0.0688,0.0695,0.0676,0.0677,0.0732,0.0737,0.0741,0.086,0.0762,0.0764,0.0765,0.091,0.0913,0.0916,0,0,0,0,0,0,0.0507,0.0516,0.06,0.0567,0.0579,0.0622,0.064,0.0647,0.0678,0.0698,0.0704,0.0701,0.0732,0.0738,0.0791,0.0859,0.0765,0.0767,0.0907,0.0911,0.0915,0.1033,0,0,0,0,0,0,0.0504,0.0515,0.0528,0.0567,0.0581,0.0642,0.064,0.0648,0.0683,0.0687,0.0722,0.0726,0.0733,0.0788,0.0793,0.086,0.0769,0.0904,0.0909,0.0913,0.1026,0.104,0.1053,0,0,0,0,0,0.05,0.052,0.0528,0.0538,0.0595,0.0643,0.0652,0.0682,0.0685,0.0708,0.0739,0.0726,0.0823,0.0792,0.0797,0.0866,0.0901,0.0907,0.0913,0.102,0.1038,0.1053,0,0,0,0,0,0,0.0485,0.0527,0.0536,0.057,0.0609,0.065,0.0675,0.0692,0.0734,0.0743,0.0753,0.0761,0.0837,0.0829,0.0794,0.0923,0.0863,0.087,0.0942,0.0959,0.0972,0.0985,0.0771,0,0,0,0,0,0.0485,0.051,0.0553,0.0581,0.0601,0.0639,0.0663,0.0688,0.0728,0.0747,0.0778,0.0814,0.0864,0.0891,0.0924,0.0987,0.0979,0.1036,0.105,0.1061,0.1077,0.114,0.1161,0.0935,0.0935,0.0935,0,0,0.0487,0.0514,0.0528,0.058,0.061,0.0661,0.0654,0.0704,0.0759,0.0746,0.0832,0.0861,0.089,0.0973,0.1006,0.0977,0.1117,0.1069,0.1079,0.1088,0.1149,0.1171,0.119,0.0939,0.0939,0.0938,0,0,0.0506,0.0529,0.0558,0.0596,0.0651,0.0683,0.0701,0.0761,0.08,0.0878,0.0896,0.0967,0.1026,0.1079,0.1107,0.1212,0.1186,0.1222,0.1309,0.1371,0.139,0.1407,0.1403,0.1419,0.1232,0.1232,0.1232,0,0.0504,0.0553,0.0575,0.0621,0.0662,0.0697,0.0752,0.0803,0.0878,0.0925,0.0919,0.106,0.1085,0.1202,0.1253,0.1247,0.1251,0.1245,0.139,0.1406,0.1421,0.1413,0.1429,0.1238,0.1238,0.1237,0.1237,0,0.0551,0.0596,0.0621,0.0692,0.0738,0.0792,0.0862,0.0923,0.0973,0.1029,0.1152,0.1203,0.1288,0.1317,0.1324,0.1458,0.1414,0.1397,0.1347,0.1451,0.1436,0.145,0.1248,0.1245,0.1243,0.1242,0,0,0.053,0.0631,0.0642,0.0686,0.0783,0.0824,0.0927,0.1029,0.1093,0.1193,0.1289,0.1415,0.1448,0.1483,0.151,0.1575,0.1686,0.1545,0.1546,0.1539,0.1786,0.1693,0.1698,0.1702,0.1706,0.1709,0.1722,0,0.0562,0.0651,0.0703,0.08,0.0853,0.0925,0.101,0.1109,0.1189,0.1289,0.1388,0.1478,0.151,0.1551,0.1642,0.1669,0.1733,0.1681,0.1687,0.1686,0.1592,0.1717,0.1629,0.163,0.1735,0.1738,0.1739,0,0.0593,0.065,0.0742,0.0853,0.0882,0.0946,0.1076,0.1157,0.1302,0.1365,0.1497,0.1555,0.17,0.1684,0.1832,0.1798,0.1819,0.1828,0.1829,0.1715,0.1623,0.1548,0.1651,0.1762,0.176,0.1759,0.1757,0,0.0561,0.068,0.0751,0.0791,0.0919,0.0976,0.1049,0.1182,0.1248,0.1408,0.1461,0.164,0.1706,0.1806,0.1855,0.1858,0.1959,0.1952,0.1885,0.1874,0.1786,0.1762,0.2058,0.2058,0.2058,0.2058,0.2058,0,0.0571,0.0627,0.0738,0.0774,0.0853,0.0954,0.1043,0.1137,0.1265,0.1344,0.1494,0.1568,0.1745,0.1821,0.1875,0.1917,0.1983,0.1927,0.19,0.1819,0.1799,0.1902,0.1884,0.2058,0.2058,0.2058,0.2058,0,0.0519,0.0598,0.0672,0.0798,0.0835,0.0885,0.1006,0.1065,0.1193,0.1296,0.1345,0.153,0.1647,0.1762,0.1885,0.1907,0.1956,0.1939,0.1799,0.1757,0.1823,0.1811,0.1908,0.1906,0.1903,0.1902,0.19,0,0.0502,0.0535,0.065,0.0683,0.0736,0.082,0.0871,0.1011,0.1068,0.1254,0.129,0.1446,0.1561,0.1693,0.1768,0.1845,0.1888,0.1757,0.1772,0.1859,0.1822,0.1813,0.1804,0.1687,0.1684,0.1681,0.1679,0,0.0453,0.0491,0.0545,0.0612,0.0666,0.0725,0.0809,0.084,0.1003,0.1094,0.1227,0.1336,0.1499,0.1586,0.1663,0.1681,0.1752,0.1705,0.1873,0.1727,0.1649,0.1612,0.1612,0.1656,0.1659,0.166,0.1662,0.1663,0.0399,0.0417,0.0488,0.055,0.0601,0.0642,0.0672,0.0764,0.0849,0.1011,0.1126,0.1274,0.1387,0.1495,0.1507,0.1523,0.1622,0.1597,0.1606,0.1618,0.1579,0.1501,0.147,0.1471,0.1472,0.1473,0.1473,0,0.0345,0.0387,0.0428,0.0501,0.0531,0.0589,0.0644,0.068,0.0762,0.0925,0.1073,0.1101,0.1214,0.132,0.1344,0.1371,0.137,0.1319,0.1342,0.1365,0.1385,0.1336,0.1162,0.1161,0.116,0.1159,0,0,0.0322,0.0353,0.0387,0.0433,0.0481,0.0514,0.0538,0.0603,0.0704,0.0809,0.0916,0.1119,0.1245,0.1163,0.1201,0.1198,0.1254,0.1148,0.1399,0.1445,0.1464,0.1549,0.1499,0,0,0,0,0]},{"header":{"parameterUnit":"m.s-1","parameterCategory":2,"la1":30.2991,"la2":30.254,"lo1":-89.0895,"lo2":-89.0444,"dy":0.0017,"dx":0.0017,"nx":28,"ny":28,"refTime":"2023-08-13T21:00:00:Z","depth":"2","parameterNumber":3,"parameterNumberName":"V-component_of_CURRENTS"},"data":[0,0,0,0,0,0,0,0,0,0,0,0,0,0,0,0,0,0,0,0,0,0,0,0,0,0,0,0,0,0,0,0,0,0,0,0,0,0,0,0,0,0,0,0,0,0,0,0,0,0,0,0,0,0,0,0,0,0,-0.0493,-0.0493,0,-0.0453,-0.0453,-0.0452,-0.0432,-0.0431,-0.0431,-0.0431,-0.0385,-0.0384,-0.0383,0,0,0,0,0,0,0,0,0,0,0,0,0,-0.0566,-0.0565,-0.0493,-0.0493,-0.0492,-0.0453,-0.0453,-0.0452,-0.0432,-0.0431,-0.0431,-0.0431,-0.0385,-0.0384,-0.0383,0,0,0,0,0,0,0,0,0,0,0,0,0,-0.0533,-0.0565,-0.0493,-0.0475,-0.0473,-0.0453,-0.0453,-0.0452,-0.0432,-0.0431,-0.0431,-0.0431,-0.0385,-0.0384,-0.0382,-0.0379,0,0,-0.0378,-0.0377,0,0,0,0,0,0,0,0,-0.0535,-0.0531,-0.0479,-0.0477,-0.0474,-0.0445,-0.0461,-0.0427,-0.0432,-0.045,-0.0431,-0.0431,-0.0403,-0.04,-0.0396,-0.0377,-0.0375,-0.0377,-0.0376,-0.0376,-0.0375,0,0,0,0,0,0,0,-0.0537,-0.0532,-0.0479,-0.0478,-0.0475,-0.0474,-0.0469,-0.0455,-0.043,-0.0448,-0.0446,-0.0438,-0.0402,-0.0398,-0.0395,-0.0374,-0.0377,-0.0376,-0.0375,-0.0375,-0.0329,-0.0329,0,0,0,0,0,0,-0.0538,-0.0534,-0.048,-0.0478,-0.0502,-0.0473,-0.0467,-0.0456,-0.043,-0.0425,-0.0439,-0.0438,-0.0401,-0.0397,-0.0393,-0.0352,-0.0376,-0.0374,-0.0373,-0.0329,-0.0329,-0.0329,0,0,0,0,0,0,-0.0539,-0.0533,-0.0482,-0.0504,-0.0497,-0.0472,-0.046,-0.0456,-0.0438,-0.0423,-0.0418,-0.0423,-0.04,-0.0395,-0.0375,-0.0351,-0.0374,-0.0372,-0.033,-0.0329,-0.0329,-0.0291,0,0,0,0,0,0,-0.0542,-0.0534,-0.0522,-0.0504,-0.0496,-0.0457,-0.046,-0.0455,-0.0433,-0.0431,-0.0408,-0.0404,-0.04,-0.0378,-0.0374,-0.0349,-0.0371,-0.033,-0.0329,-0.0329,-0.0293,-0.0289,-0.0287,0,0,0,0,0,-0.0544,-0.0527,-0.0522,-0.0515,-0.0482,-0.0456,-0.0452,-0.0435,-0.0433,-0.0419,-0.0411,-0.0404,-0.0372,-0.0376,-0.0371,-0.0346,-0.033,-0.033,-0.0329,-0.0294,-0.029,-0.0287,0,0,0,0,0,0,-0.0551,-0.0522,-0.0517,-0.0491,-0.047,-0.0451,-0.0434,-0.0427,-0.041,-0.0405,-0.04,-0.0395,-0.0371,-0.0368,-0.0373,-0.0334,-0.035,-0.0348,-0.0325,-0.0321,-0.0318,-0.0296,-0.037,0,0,0,0,0,-0.0548,-0.0527,-0.0503,-0.0482,-0.0469,-0.0451,-0.0437,-0.0424,-0.0409,-0.04,-0.0386,-0.0375,-0.0368,-0.0351,-0.0345,-0.0318,-0.0338,-0.0301,-0.0298,-0.0295,-0.0276,-0.0305,-0.0303,-0.0327,-0.0327,-0.0327,0,0,-0.0543,-0.0526,-0.0512,-0.0482,-0.0464,-0.0428,-0.0441,-0.0411,-0.0381,-0.0398,-0.0355,-0.0364,-0.0362,-0.0337,-0.0324,-0.0326,-0.0303,-0.0294,-0.0292,-0.0274,-0.0304,-0.0302,-0.03,-0.0326,-0.0326,-0.0326,0,0,-0.0516,-0.0507,-0.0474,-0.0453,-0.042,-0.0408,-0.0396,-0.0368,-0.0355,-0.0325,-0.0335,-0.0332,-0.0305,-0.0303,-0.0299,-0.0275,-0.0293,-0.0271,-0.0225,-0.0254,-0.0252,-0.025,-0.0288,-0.029,-0.0261,-0.0261,-0.0261,0,-0.0507,-0.0463,-0.0461,-0.0421,-0.0392,-0.0394,-0.0344,-0.0334,-0.0304,-0.0289,-0.0302,-0.0283,-0.0288,-0.0261,-0.0256,-0.0265,-0.0289,-0.0237,-0.0249,-0.0248,-0.0247,-0.0286,-0.0289,-0.0259,-0.0259,-0.0259,-0.0259,0,-0.0452,-0.0412,-0.039,-0.0339,-0.0313,-0.0274,-0.0255,-0.0233,-0.0225,-0.0215,-0.0194,-0.0215,-0.0199,-0.0209,-0.0221,-0.0209,-0.0233,-0.0251,-0.0257,-0.0243,-0.0285,-0.0288,-0.0256,-0.0257,-0.0257,-0.0258,0,0,-0.0426,-0.0362,-0.0347,-0.0305,-0.0262,-0.023,-0.019,-0.0147,-0.0114,-0.0115,-0.0078,-0.009,-0.0109,-0.0107,-0.0132,-0.0156,-0.0187,-0.0192,-0.0194,-0.0225,-0.0258,-0.0335,-0.0347,-0.0209,-0.0209,-0.0209,-0.0295,0,-0.0372,-0.0284,-0.0265,-0.0175,-0.0125,-0.0115,-0.0074,-0.0044,-0.0034,-0.0007,-0.0039,-0.002,-0.0067,-0.0062,-0.0095,-0.0162,-0.0192,-0.0162,-0.0269,-0.0271,-0.034,-0.0352,-0.0323,-0.0402,-0.0299,-0.0299,-0.03,0,-0.0309,-0.0257,-0.0162,-0.0082,-0.0058,-0.0008,0.0058,0.0093,0.011,0.0115,0.0113,0.0085,0.0059,0.0008,-0.0093,-0.0072,-0.0152,-0.0216,-0.0221,-0.0303,-0.0355,-0.0397,-0.0413,-0.0306,-0.0306,-0.0305,-0.0305,0,-0.0277,-0.0177,-0.0098,-0.0069,0.0011,0.0059,0.0102,0.0137,0.0175,0.0193,0.0209,0.017,0.0154,0.0052,-0.0085,-0.0085,-0.0217,-0.0235,-0.0381,-0.0388,-0.0387,-0.0395,-0.0306,-0.0306,-0.0306,-0.0306,-0.0306,0,-0.0224,-0.0152,-0.0071,-0.0026,0.0074,0.0111,0.0202,0.0231,0.0272,0.0315,0.0277,0.0283,0.0164,0.0071,-0.006,-0.0241,-0.0202,-0.0373,-0.0414,-0.0377,-0.0382,-0.0311,-0.0311,-0.0309,-0.0308,-0.0308,-0.0307,0,-0.0191,-0.0143,-0.0042,0.0057,0.0094,0.0169,0.0271,0.0325,0.0354,0.0404,0.0413,0.0372,0.0243,0.0093,-0.008,-0.0209,-0.0374,-0.0447,-0.0404,-0.0439,-0.053,-0.0526,-0.0609,-0.0612,-0.0615,-0.0618,-0.062,0,-0.016,-0.011,0.0016,0.0078,0.0134,0.0238,0.0303,0.0364,0.0414,0.0445,0.0465,0.0379,0.0288,0.0,-0.0211,-0.0457,-0.0454,-0.0589,-0.0588,-0.0529,-0.056,-0.0552,-0.0545,-0.0573,-0.0575,-0.0576,-0.0577,0,-0.0102,-0.006,0.0019,0.0138,0.023,0.0319,0.0415,0.0455,0.0508,0.0522,0.0514,0.0443,0.0204,-0.0041,-0.0358,-0.0509,-0.055,-0.0626,-0.0565,-0.0512,-0.0505,-0.0533,-0.0525,-0.0588,-0.0587,-0.0586,-0.0585,-0.0585,-0.0049,0.0009,0.0105,0.0219,0.0314,0.0393,0.0452,0.0515,0.0558,0.0567,0.0511,0.0408,0.0171,-0.0254,-0.0474,-0.0656,-0.0668,-0.0736,-0.0727,-0.0718,-0.071,-0.071,-0.0829,-0.0829,-0.083,-0.083,-0.083,0,0.0022,0.0084,0.0181,0.0308,0.0395,0.045,0.0525,0.054,0.0568,0.0547,0.0502,0.0247,-0.0028,-0.0244,-0.0535,-0.0759,-0.0715,-0.0803,-0.0694,-0.0685,-0.0676,-0.0659,-0.0768,-0.0768,-0.0768,-0.0768,0,0,0.0068,0.0161,0.0199,0.0353,0.0447,0.0552,0.0589,0.0576,0.0555,0.048,0.0434,0.0287,0.0004,-0.0204,-0.0474,-0.0605,-0.059,-0.0628,-0.0666,-0.05,-0.0488,-0.0639,-0.0605,0,0,0,0,0]}],[{"header":{"parameterUnit":"m.s-1","parameterCategory":2,"la1":30.2991,"la2":30.254,"lo1":-89.0895,"lo2":-89.0444,"dy":0.0017,"dx":0.0017,"nx":28,"ny":28,"refTime":"2023-08-13T21:00:00:Z","depth":"4","parameterNumber":2,"parameterNumberName":"U-component_of_CURRENTS"},"data":[0,0,0,0,0,0,0,0,0,0,0,0,0,0,0,0,0,0,0,0,0,0,0,0,0,0,0,0,0,0,0,0,0,0,0,0,0,0,0,0,0,0,0,0,0,0,0,0,0,0,0,0,0,0,0,0,0,0,0.0431,0.0432,0,0.0482,0.0482,0.0483,0.0532,0.0532,0.0533,0.0534,0.0583,0.0584,0.0584,0,0,0,0,0,0,0,0,0,0,0,0,0,0.0366,0.0367,0.0431,0.0432,0.0432,0.0482,0.0482,0.0483,0.0532,0.0532,0.0533,0.0534,0.0583,0.0584,0.0584,0,0,0,0,0,0,0,0,0,0,0,0,0,0.0402,0.0367,0.0431,0.0463,0.0467,0.0482,0.0482,0.0483,0.0531,0.0532,0.0534,0.0534,0.0583,0.0584,0.0585,0.057,0,0,0.0588,0.0588,0,0,0,0,0,0,0,0,0.04,0.0405,0.0458,0.0461,0.0465,0.0502,0.0478,0.0512,0.0531,0.0506,0.0534,0.0535,0.0556,0.0559,0.0565,0.0572,0.0574,0.0588,0.0588,0.0589,0.0589,0,0,0,0,0,0,0,0.0398,0.0403,0.045,0.0458,0.0463,0.0472,0.0478,0.0484,0.0524,0.0508,0.0512,0.0519,0.0558,0.0564,0.0566,0.0575,0.0588,0.0589,0.0589,0.059,0.0615,0.0616,0,0,0,0,0,0,0.0393,0.04,0.0449,0.0452,0.0435,0.0472,0.0479,0.0488,0.0524,0.053,0.0518,0.0521,0.0562,0.0565,0.0568,0.0602,0.0589,0.059,0.059,0.0615,0.0615,0.0616,0,0,0,0,0,0,0.0391,0.0396,0.0447,0.0428,0.0435,0.0472,0.0482,0.0489,0.0511,0.0531,0.0538,0.0535,0.0563,0.0567,0.0592,0.0602,0.059,0.0591,0.0615,0.0615,0.0616,0.0637,0,0,0,0,0,0,0.0389,0.0396,0.0403,0.0427,0.0436,0.0467,0.0482,0.0489,0.0513,0.0518,0.0548,0.0553,0.0564,0.059,0.0593,0.0604,0.0592,0.0615,0.0615,0.0615,0.0636,0.0638,0.0639,0,0,0,0,0,0.0386,0.0393,0.0403,0.0409,0.0444,0.0467,0.0473,0.0502,0.0513,0.0525,0.0548,0.0553,0.0593,0.0591,0.0594,0.0606,0.0615,0.0615,0.0615,0.0636,0.0638,0.0639,0,0,0,0,0,0,0.037,0.04,0.0411,0.0427,0.045,0.0476,0.0491,0.0506,0.0532,0.0541,0.0557,0.0563,0.0586,0.0589,0.0587,0.0612,0.0603,0.0604,0.0617,0.0619,0.0621,0.0621,0.0593,0,0,0,0,0,0.0368,0.0384,0.041,0.0425,0.0437,0.0464,0.0478,0.0498,0.0522,0.0535,0.0557,0.0574,0.0584,0.0599,0.0608,0.0624,0.0626,0.0631,0.0632,0.0634,0.0634,0.0637,0.0639,0.0616,0.0616,0.0616,0,0,0.0363,0.0385,0.0393,0.0423,0.0444,0.0463,0.0476,0.0503,0.0522,0.0534,0.057,0.058,0.0588,0.0609,0.0619,0.0618,0.0645,0.0634,0.0635,0.0635,0.0637,0.064,0.0642,0.0616,0.0616,0.0616,0,0,0.0365,0.0385,0.04,0.042,0.0455,0.0471,0.048,0.0513,0.0534,0.0562,0.0573,0.0589,0.0615,0.0622,0.0627,0.0639,0.0649,0.0645,0.0661,0.0664,0.0666,0.0668,0.069,0.0693,0.0651,0.0651,0.0651,0,0.0359,0.0385,0.0407,0.0429,0.0448,0.0474,0.0494,0.0513,0.0552,0.0567,0.0579,0.061,0.0618,0.0633,0.0643,0.0643,0.0656,0.0656,0.0667,0.0668,0.067,0.0692,0.0695,0.0652,0.0652,0.0652,0.0652,0,0.0372,0.0397,0.0409,0.0446,0.0466,0.0489,0.0517,0.0541,0.0567,0.0586,0.0614,0.0626,0.0647,0.0649,0.0655,0.0668,0.0679,0.0665,0.0664,0.0673,0.0696,0.0699,0.0654,0.0654,0.0653,0.0653,0,0,0.0345,0.0406,0.0411,0.0436,0.0479,0.0498,0.0527,0.0559,0.0582,0.0612,0.064,0.0654,0.0667,0.0672,0.0677,0.0682,0.0708,0.0687,0.0687,0.0713,0.0738,0.0756,0.0762,0.0703,0.0703,0.0703,0.0756,0,0.035,0.0394,0.0422,0.0462,0.0488,0.052,0.0546,0.0577,0.0607,0.064,0.065,0.0677,0.0674,0.0692,0.0696,0.0705,0.0716,0.0696,0.0721,0.0722,0.0739,0.0765,0.0704,0.0758,0.0759,0.0759,0.076,0,0.0351,0.0385,0.0425,0.0483,0.0496,0.0521,0.0569,0.0598,0.0638,0.0664,0.0689,0.0704,0.0725,0.0715,0.0739,0.0733,0.074,0.074,0.0742,0.0752,0.0746,0.0741,0.0766,0.0765,0.0765,0.0764,0.0764,0,0.0325,0.0385,0.042,0.0439,0.0502,0.0527,0.0561,0.0605,0.0634,0.0682,0.071,0.0733,0.076,0.0761,0.0787,0.0766,0.0816,0.078,0.08,0.0802,0.0759,0.0757,0.0787,0.0787,0.0786,0.0786,0.0786,0,0.0318,0.0346,0.0414,0.0433,0.0475,0.0523,0.0566,0.0602,0.0654,0.0689,0.0724,0.0755,0.0774,0.0809,0.0807,0.0837,0.0836,0.0813,0.0817,0.077,0.0767,0.0763,0.076,0.0788,0.0788,0.0787,0.0787,0,0.0284,0.033,0.0372,0.0441,0.0465,0.0495,0.0568,0.0596,0.0655,0.0703,0.0722,0.0785,0.084,0.0868,0.089,0.0876,0.0888,0.0895,0.0878,0.0878,0.0864,0.0861,0.0907,0.0908,0.0909,0.091,0.091,0,0.0274,0.0292,0.0366,0.0392,0.0427,0.0481,0.0515,0.0585,0.0619,0.0716,0.0735,0.0818,0.0856,0.0908,0.0935,0.0961,0.0945,0.0951,0.0869,0.0878,0.0876,0.0872,0.0868,0.0912,0.0912,0.0912,0.0912,0,0.0248,0.0273,0.0307,0.0364,0.0407,0.0451,0.0511,0.0535,0.062,0.0671,0.074,0.0789,0.0866,0.0904,0.0957,0.0957,0.0942,0.0959,0.0955,0.0878,0.0884,0.0881,0.0875,0.0916,0.0915,0.0915,0.0915,0,0.0222,0.0237,0.0285,0.0336,0.0383,0.0424,0.0458,0.0518,0.0565,0.0672,0.0695,0.0787,0.0852,0.0905,0.0942,0.0971,0.0938,0.0891,0.089,0.0887,0.0861,0.0864,0.0902,0,0,0,0,0,0.0198,0.0218,0.0258,0.0317,0.0362,0.0396,0.0459,0.0495,0.0575,0.0609,0.0655,0.0724,0.0808,0.0855,0.0881,0.0939,0.0941,0.0966,0.0885,0.0933,0.093,0.0903,0,0,0,0,0,0,0.0183,0.0214,0.0246,0.0295,0.033,0.0381,0.0419,0.0471,0.0499,0.0579,0.0623,0.069,0.0774,0.0783,0.0866,0.0885,0.0825,0.1026,0.1025,0.0935,0.0932,0.0929,0.0901,0,0,0,0,0]},{"header":{"parameterUnit":"m.s-1","parameterCategory":2,"la1":30.2991,"la2":30.254,"lo1":-89.0895,"lo2":-89.0444,"dy":0.0017,"dx":0.0017,"nx":28,"ny":28,"refTime":"2023-08-13T21:00:00:Z","depth":"4","parameterNumber":3,"parameterNumberName":"V-component_of_CURRENTS"},"data":[0,0,0,0,0,0,0,0,0,0,0,0,0,0,0,0,0,0,0,0,0,0,0,0,0,0,0,0,0,0,0,0,0,0,0,0,0,0,0,0,0,0,0,0,0,0,0,0,0,0,0,0,0,0,0,0,0,0,-0.0283,-0.0283,0,-0.0314,-0.0314,-0.0314,-0.0361,-0.0362,-0.0363,-0.0364,-0.0436,-0.0437,-0.0438,0,0,0,0,0,0,0,0,0,0,0,0,0,-0.0256,-0.0256,-0.0283,-0.0283,-0.0284,-0.0314,-0.0314,-0.0314,-0.0361,-0.0362,-0.0363,-0.0364,-0.0435,-0.0437,-0.0438,0,0,0,0,0,0,0,0,0,0,0,0,0,-0.0275,-0.0257,-0.0282,-0.0311,-0.0314,-0.0314,-0.0314,-0.0314,-0.0361,-0.0362,-0.0363,-0.0365,-0.0435,-0.0437,-0.0438,-0.042,0,0,-0.0443,-0.0444,0,0,0,0,0,0,0,0,-0.0273,-0.0275,-0.0306,-0.0309,-0.0313,-0.0336,-0.0331,-0.0352,-0.036,-0.0342,-0.0364,-0.0365,-0.0406,-0.041,-0.0411,-0.0424,-0.0427,-0.0443,-0.0444,-0.0445,-0.0445,0,0,0,0,0,0,0,-0.0272,-0.0274,-0.0294,-0.0307,-0.0311,-0.032,-0.0324,-0.0335,-0.0366,-0.0344,-0.0347,-0.0352,-0.0408,-0.0409,-0.0413,-0.0428,-0.0443,-0.0445,-0.0446,-0.0446,-0.0553,-0.0554,0,0,0,0,0,0,-0.0269,-0.0273,-0.0293,-0.0295,-0.0297,-0.0319,-0.0324,-0.0326,-0.0365,-0.0372,-0.0351,-0.0354,-0.0406,-0.0411,-0.0416,-0.0488,-0.0445,-0.0446,-0.0447,-0.0551,-0.0553,-0.0555,0,0,0,0,0,0,-0.0268,-0.027,-0.0292,-0.0286,-0.0289,-0.0319,-0.032,-0.0326,-0.0349,-0.037,-0.0378,-0.0371,-0.0407,-0.0413,-0.0457,-0.0488,-0.0447,-0.0448,-0.0549,-0.0551,-0.0554,-0.0575,0,0,0,0,0,0,-0.0267,-0.027,-0.0275,-0.0285,-0.029,-0.0311,-0.0319,-0.0326,-0.0349,-0.0354,-0.0389,-0.0396,-0.0408,-0.0454,-0.0458,-0.0489,-0.045,-0.0546,-0.055,-0.0553,-0.0572,-0.0578,-0.0583,0,0,0,0,0,-0.0266,-0.0267,-0.0275,-0.0278,-0.0294,-0.0312,-0.0316,-0.034,-0.0349,-0.0364,-0.0395,-0.0396,-0.048,-0.0457,-0.0461,-0.0493,-0.0544,-0.0549,-0.0553,-0.0569,-0.0577,-0.0583,0,0,0,0,0,0,-0.0264,-0.0272,-0.0281,-0.0286,-0.0308,-0.0321,-0.0333,-0.0347,-0.0379,-0.0391,-0.0409,-0.0418,-0.047,-0.048,-0.0453,-0.0538,-0.0517,-0.0522,-0.0528,-0.0535,-0.0541,-0.0535,-0.0451,0,0,0,0,0,-0.0263,-0.0266,-0.0281,-0.029,-0.0298,-0.0317,-0.0328,-0.0348,-0.0373,-0.0389,-0.0418,-0.0453,-0.0485,-0.0509,-0.0536,-0.0572,-0.0569,-0.0602,-0.0608,-0.0612,-0.0613,-0.0631,-0.0637,-0.0569,-0.0569,-0.0569,0,0,-0.0265,-0.0271,-0.0274,-0.029,-0.0305,-0.0323,-0.0328,-0.0353,-0.038,-0.0391,-0.0443,-0.047,-0.0499,-0.0548,-0.0573,-0.0564,-0.0633,-0.0618,-0.0621,-0.062,-0.0636,-0.0642,-0.0648,-0.0572,-0.0571,-0.0571,0,0,-0.0273,-0.0277,-0.0285,-0.03,-0.0326,-0.0338,-0.0349,-0.0379,-0.0405,-0.0453,-0.0471,-0.0515,-0.0568,-0.0593,-0.0611,-0.0662,-0.0659,-0.0685,-0.0712,-0.0729,-0.0734,-0.0738,-0.0743,-0.0748,-0.0692,-0.0692,-0.0692,0,-0.0281,-0.0288,-0.0293,-0.0308,-0.0322,-0.0347,-0.0366,-0.0391,-0.0439,-0.0459,-0.0482,-0.0561,-0.0588,-0.0632,-0.0665,-0.0673,-0.0681,-0.0677,-0.0733,-0.0738,-0.0742,-0.0746,-0.075,-0.0694,-0.0694,-0.0693,-0.0693,0,-0.0295,-0.0305,-0.0312,-0.0336,-0.0354,-0.0375,-0.0406,-0.0438,-0.0474,-0.0502,-0.0566,-0.0606,-0.0652,-0.0677,-0.0692,-0.0742,-0.0737,-0.0731,-0.0707,-0.0749,-0.0752,-0.0756,-0.0696,-0.0695,-0.0695,-0.0695,0,0,-0.0305,-0.0317,-0.0325,-0.0331,-0.0369,-0.0381,-0.0425,-0.0463,-0.0485,-0.0554,-0.0588,-0.0665,-0.0688,-0.0711,-0.0735,-0.0764,-0.0806,-0.0772,-0.0773,-0.0762,-0.0843,-0.0784,-0.0783,-0.0813,-0.0814,-0.0814,-0.0832,0,-0.032,-0.0334,-0.0346,-0.0374,-0.038,-0.0409,-0.0439,-0.048,-0.0523,-0.0564,-0.0617,-0.066,-0.0699,-0.0724,-0.0765,-0.0788,-0.082,-0.0801,-0.0817,-0.0817,-0.0747,-0.0787,-0.0818,-0.0835,-0.0836,-0.0837,-0.0837,0,-0.0335,-0.0338,-0.0355,-0.037,-0.0377,-0.0403,-0.044,-0.0474,-0.0529,-0.0562,-0.062,-0.0656,-0.0717,-0.0738,-0.0811,-0.0801,-0.0834,-0.0853,-0.0854,-0.0793,-0.0767,-0.0787,-0.0845,-0.0844,-0.0844,-0.0843,-0.0843,0,-0.0323,-0.0347,-0.0354,-0.0362,-0.0387,-0.0406,-0.043,-0.0478,-0.0495,-0.0558,-0.0572,-0.0653,-0.0679,-0.0745,-0.0803,-0.0814,-0.0864,-0.0873,-0.0849,-0.0844,-0.0879,-0.0874,-0.0924,-0.0924,-0.0924,-0.0924,-0.0924,0,-0.0321,-0.0331,-0.0348,-0.0351,-0.0362,-0.0392,-0.0415,-0.0446,-0.0484,-0.0493,-0.0569,-0.058,-0.0685,-0.0726,-0.0792,-0.0826,-0.0855,-0.0857,-0.0848,-0.0889,-0.0885,-0.0882,-0.0877,-0.0924,-0.0924,-0.0924,-0.0924,0,-0.0305,-0.0317,-0.0321,-0.0344,-0.0353,-0.0364,-0.039,-0.0401,-0.0438,-0.0449,-0.0465,-0.0527,-0.0577,-0.0661,-0.0745,-0.0785,-0.0834,-0.0838,-0.0865,-0.0856,-0.081,-0.0806,-0.0822,-0.082,-0.0819,-0.0817,-0.0816,0,-0.0294,-0.0295,-0.0308,-0.0308,-0.0322,-0.0338,-0.0346,-0.038,-0.0385,-0.0406,-0.0403,-0.0448,-0.0495,-0.0553,-0.066,-0.0762,-0.0776,-0.0803,-0.0834,-0.0812,-0.0802,-0.08,-0.0799,-0.0814,-0.0813,-0.0813,-0.0813,0,-0.0275,-0.0284,-0.0284,-0.0282,-0.029,-0.029,-0.0304,-0.0292,-0.032,-0.0341,-0.0326,-0.0374,-0.0415,-0.0507,-0.0577,-0.0659,-0.0791,-0.0788,-0.0792,-0.0821,-0.0802,-0.0793,-0.0793,-0.0807,-0.0808,-0.0808,-0.0809,0,-0.0265,-0.0259,-0.0263,-0.026,-0.0261,-0.0254,-0.0258,-0.0252,-0.0252,-0.0267,-0.0254,-0.0316,-0.0361,-0.0451,-0.0522,-0.0589,-0.0619,-0.065,-0.0662,-0.067,-0.0625,-0.0578,-0.0509,0,0,0,0,0,-0.026,-0.0254,-0.0243,-0.024,-0.0236,-0.0241,-0.0236,-0.024,-0.0246,-0.0215,-0.0232,-0.0265,-0.035,-0.0397,-0.045,-0.0522,-0.0654,-0.0589,-0.0702,-0.0777,-0.0783,-0.0752,0,0,0,0,0,0,-0.0258,-0.0251,-0.0239,-0.0225,-0.022,-0.0219,-0.0215,-0.0216,-0.0198,-0.0203,-0.0241,-0.0268,-0.0355,-0.031,-0.0445,-0.047,-0.0546,-0.0638,-0.0639,-0.0773,-0.0779,-0.0784,-0.0754,0,0,0,0,0]}]]